This demonstration page uses our WeatherBlox Daily Observations layout. Learn more.

Hourly Observations for August 7, 2019

Temp ( °F °C ) Dew Point ( °F °C ) Humidity (%) Winds ( mph kmh ) Pressure ( in mb ) Visibility ( mi km ) Precip ( " mm )
12:15 am 00:15 Clear 72 22 70 21 94 94 Calm 29.83 1010 10 16.09344 0 0
12:55 am 00:55 Clear 72 22 70 21 94 94 Calm 29.83 1010 10 16.09344 0 0
1:15 am 01:15 Clear 72 22 70 21 94 94 ESE 6 9 29.83 1010 10 16.09344 0 0
1:35 am 01:35 Clear 72 22 70 21 94 94 E 3 6 29.83 1010 10 16.09344 0 0
1:55 am 01:55 Partly Cloudy 72 22 70 21 94 94 Calm 29.83 1010 10 16.09344 0 0
2:15 am 02:15 Partly Cloudy 72 22 70 21 94 94 Calm 29.83 1010 10 16.09344 0 0
2:35 am 02:35 Clear 70 21 68 20 94 94 Calm 29.83 1010 10 16.09344 0 0
2:55 am 02:55 Clear 68 20 68 20 100 100 Calm 29.83 1010 10 16.09344 0 0
3:15 am 03:15 Clear 70 21 68 20 94 94 Calm 29.83 1010 10 16.09344 0 0
3:35 am 03:35 Partly Cloudy 68 20 68 20 100 100 Calm 29.83 1010 10 16.09344 0 0
3:55 am 03:55 Mostly Cloudy 68 20 68 20 100 100 Calm 29.83 1010 10 16.09344 0 0
4:15 am 04:15 Partly Cloudy 68 20 68 20 100 100 Calm 29.83 1010 10 16.09344 0 0
4:35 am 04:35 Partly Cloudy 68 20 68 20 100 100 Calm 29.83 1010 10 16.09344 0 0
4:55 am 04:55 Partly Cloudy 66 19 66 19 100 100 Calm 29.83 1010 10 16.09344 0 0
5:15 am 05:15 Clear 66 19 66 19 100 100 Calm 29.83 1010 10 16.09344 0 0
5:35 am 05:35 Clear 64 18 64 18 100 100 Calm 29.83 1010 10 16.09344 0 0
5:55 am 05:55 Clear 66 19 66 19 100 100 Calm 29.83 1010 10 16.09344 0 0
6:35 am 06:35 Sunny 66 19 66 19 100 100 Calm 29.85 1011 10 16.09344 0 0
6:55 am 06:55 Sunny 66 19 66 19 100 100 Calm 29.85 1011 10 16.09344 0 0
7:15 am 07:15 Sunny 68 20 68 20 100 100 Calm 29.85 1011 10 16.09344 0 0
7:35 am 07:35 Sunny 70 21 68 20 94 94 SSE 3 6 29.85 1011 10 16.09344 0 0
7:55 am 07:55 Sunny 70 21 68 20 94 94 Calm 29.85 1011 10 16.09344 0 0
8:15 am 08:15 Sunny 72 22 70 21 94 94 S 3 6 29.85 1011 10 16.09344 0 0
8:35 am 08:35 Sunny 73 23 70 21 89 89 S 5 7 29.85 1011 10 16.09344 0 0
8:55 am 08:55 Sunny 77 25 70 21 79 79 SW 3 6 29.85 1011 10 16.09344 0 0
9:15 am 09:15 Sunny 77 25 70 21 79 79 Calm 29.85 1011 10 16.09344 0 0
9:35 am 09:35 Sunny 79 26 70 21 74 74 WSW 3 6 29.83 1010 10 16.09344 0 0
9:55 am 09:55 Sunny 81 27 70 21 70 70 Calm 29.83 1010 10 16.09344 0 0
10:15 am 10:15 Sunny 82 28 70 21 66 66 Calm 29.83 1010 10 16.09344 0 0
10:35 am 10:35 Sunny 82 28 70 21 66 66 SSW 3 6 29.83 1010 10 16.09344 0 0
10:55 am 10:55 Sunny 86 30 70 21 59 59 Calm 29.8 1009 10 16.09344 0 0
11:15 am 11:15 Sunny 88 31 70 21 55 55 S 3 6 29.8 1009 10 16.09344 0 0
11:35 am 11:35 Sunny 88 31 70 21 55 55 SW 3 6 29.8 1009 10 16.09344 0 0
11:55 am 11:55 Sunny 90 32 68 20 49 49 S 8 13 29.77 1008 10 16.09344 0 0
12:15 pm 12:15 Sunny 91 33 66 19 44 44 WSW 10 17 29.77 1008 10 16.09344 0 0
12:35 pm 12:35 Partly Cloudy 91 33 68 20 46 46 SW 9 15 29.77 1008 10 16.09344 0 0
12:55 pm 12:55 Partly Cloudy 91 33 66 19 44 44 SSW 8 13 29.77 1008 10 16.09344 0 0
1:15 pm 13:15 Partly Cloudy 90 32 68 20 49 49 W 9 15 29.77 1008 10 16.09344 0 0
1:35 pm 13:35 Mostly Cloudy with Nearby Thunderstorms 86 30 70 21 59 59 NW 20 31 29.77 1008 10 16.09344 0 0
1:55 pm 13:55 Partly Cloudy with Nearby Thunderstorms 84 29 70 21 62 62 WNW 8 13 29.74 1007 10 16.09344 0 0
2:15 pm 14:15 Partly Cloudy with Nearby Thunderstorms 88 31 68 20 52 52 NNW 12 19 29.74 1007 10 16.09344 0 0
2:35 pm 14:35 Mostly Cloudy 81 27 70 21 70 70 NNW 15 24 29.8 1009 10 16.09344 0 0
2:55 pm 14:55 Cloudy with Nearby Thunderstorms 79 26 72 22 79 79 NNE 9 15 29.8 1009 10 16.09344 0 0
3:15 pm 15:15 Cloudy with Nearby Thunderstorms 77 25 72 22 83 83 NNE 7 11 29.8 1009 10 16.09344 0 0
3:35 pm 15:35 Cloudy with Thunderstorms 73 23 72 22 94 94 NW 9 15 29.83 1010 1.75 2.816352 0.19 4.826
3:55 pm 15:55 Mostly Cloudy 73 23 70 21 89 89 N 9 15 29.8 1009 10 16.09344 0.21 5.334
4:15 pm 16:15 Partly Cloudy 73 23 70 21 89 89 NW 7 11 29.8 1009 10 16.09344 0 0
4:35 pm 16:35 Partly Cloudy 75 24 72 22 89 89 Calm 29.8 1009 10 16.09344 0 0
4:55 pm 16:55 Sunny 77 25 70 21 79 79 Calm 29.8 1009 10 16.09344 0 0
5:15 pm 17:15 Sunny 79 26 70 21 74 74 NE 3 6 29.8 1009 10 16.09344 0 0
5:35 pm 17:35 Sunny 81 27 68 20 66 66 NNW 3 6 29.77 1008 10 16.09344 0 0
5:55 pm 17:55 Sunny 81 27 68 20 66 66 NNW 9 15 29.77 1008 10 16.09344 0 0
6:15 pm 18:15 Sunny 81 27 68 20 66 66 WNW 5 7 29.8 1009 10 16.09344 0 0
6:35 pm 18:35 Sunny 81 27 68 20 66 66 WNW 3 6 29.8 1009 10 16.09344 0 0
6:55 pm 18:55 Sunny 81 27 68 20 66 66 Calm 29.8 1009 10 16.09344 0 0
7:15 pm 19:15 Sunny 81 27 68 20 66 66 ESE 5 7 29.8 1009 10 16.09344 0 0
7:35 pm 19:35 Sunny 81 27 70 21 70 70 E 5 7 29.8 1009 10 16.09344 0 0
7:55 pm 19:55 Sunny 79 26 70 21 74 74 ESE 5 7 29.8 1009 10 16.09344 0 0
8:15 pm 20:15 Sunny 79 26 70 21 74 74 ESE 3 6 29.8 1009 10 16.09344 0 0
8:35 pm 20:35 Clear 77 25 70 21 79 79 Calm 29.8 1009 10 16.09344 0 0
8:55 pm 20:55 Clear 77 25 70 21 79 79 S 3 6 29.8 1009 10 16.09344 0 0
9:15 pm 21:15 Clear 77 25 70 21 79 79 Calm 29.8 1009 10 16.09344 0 0
9:35 pm 21:35 Clear 73 23 70 21 89 89 Calm 29.83 1010 10 16.09344 0 0
9:55 pm 21:55 Clear 73 23 70 21 89 89 SSW 3 6 29.83 1010 10 16.09344 0 0
10:15 pm 22:15 Clear 70 21 70 21 100 100 Calm 29.83 1010 10 16.09344 0 0
10:35 pm 22:35 Clear 70 21 70 21 100 100 WSW 3 6 29.83 1010 10 16.09344 0 0
10:55 pm 22:55 Clear 72 22 70 21 94 94 WSW 5 7 29.83 1010 10 16.09344 0 0
11:15 pm 23:15 Clear 72 22 70 21 94 94 WSW 5 7 29.85 1011 10 16.09344 0 0
11:35 pm 23:35 Clear 70 21 68 20 94 94 WSW 6 9 29.83 1010 10 16.09344 0 0
11:55 pm 23:55 Clear 70 21 70 21 100 100 WSW 6 9 29.83 1010 10 16.09344 0 0

Powered by AerisWeather